Waarnemingen

Advertentie
Mijn weer
Biscarosse, Frankrijk (7503): temperatuur & dauwpunt: 15.01.2017 18:00:00 - 21.01.2017 18:00:00 (CET)Biscarosse, Frankrijk (7503): temperatuur 5cm: 15.01.2017 18:00:00 - 21.01.2017 18:00:00 (CET)Biscarosse, Frankrijk (7503): temperatuur -20cm & temperatuur -100cm: 15.01.2017 18:00:00 - 21.01.2017 18:00:00 (CET)Biscarosse, Frankrijk (7503): windsnelheid & windstoten: 15.01.2017 18:00:00 - 21.01.2017 18:00:00 (CET)Biscarosse, Frankrijk (7503): windrichting: 15.01.2017 18:00:00 - 21.01.2017 18:00:00 (CET)Biscarosse, Frankrijk (7503): luchtdruk: 15.01.2017 18:00:00 - 21.01.2017 18:00:00 (CET)Biscarosse, Frankrijk (7503): zicht: 15.01.2017 18:00:00 - 21.01.2017 18:00:00 (CET)Biscarosse, Frankrijk (7503): Zonneschijnduur: 15.01.2017 18:00:00 - 21.01.2017 18:00:00 (CET)Biscarosse, Frankrijk (7503): neerslag: 15.01.2017 18:00:00 - 21.01.2017 18:00:00 (CET)
Datum & Tijd tt [°C] td [°C] tt 5cm [°C] tt -20cm [°C] tt -100cm [°C] ff [km/u] ff [kn] fx [km/u] fx [kn] dd ppp [hPa] vv [km] sd [min] rr [mm]
21.01.2017 18:00:00 8,8 1,2 6,7 4,6 8,0 6 3 13 7 O 1021,6 20 0 0,0
21.01.2017 17:00:00 11,5 1,4 11,5 4,2 8,0 6 3 17 9 OZO 1021,2 20 57 0,0
21.01.2017 16:00:00 12,1 1,1 12,8 3,8 8,0 7 4 21 11 OZO 1021,1 20 60 0,0
21.01.2017 15:00:00 11,8 1,7 14,8 3,2 8,1 7 4 25 13 OZO 1021,0 20 60 0,0
21.01.2017 14:00:00 10,1 1,2 12,7 2,7 8,0 11 6 26 14 OZO 1021,4 20 60 0,0
21.01.2017 13:00:00 8,8 0,7 11,4 2,5 8,0 13 7 29 15 OZO 1022,2 20 60 0,0
21.01.2017 12:00:00 7,6 0,1 8,5 2,5 8,1 14 8 27 15 OZO 1023,1 20 60 0,0
21.01.2017 11:00:00 5,6 -1,3 5,7 2,5 8,1 7 4 16 9 O 1023,6 20 60 0,0
21.01.2017 10:00:00 3,3 -2,2 2,3 2,5 8,1 8 5 26 14 OZO 1023,2 20 60 0,0
21.01.2017 09:00:00 2,0 -2,5 1,1 2,5 8,1 15 8 31 17 O 1022,6 20 2 0,0
21.01.2017 08:00:00 2,0 -2,3 0,2 2,6 8,1 9 5 20 11 O 1022,6 20 0 0,0
21.01.2017 07:00:00 1,9 -2,1 -0,1 2,6 8,1 10 5 22 12 O 1022,6 20 0 0,0
21.01.2017 06:00:00 1,3 -2,1 0,0 2,7 8,1 10 6 21 11 O 1023,0 20 0 0,0
21.01.2017 05:00:00 2,1 -1,5 0,2 2,7 8,2 13 7 22 12 O 1023,0 20 0 0,0
21.01.2017 04:00:00 2,1 -1,5 0,1 2,8 8,2 10 6 16 9 O 1023,4 20 0 0,0
21.01.2017 03:00:00 1,6 -0,8 -0,4 2,9 8,2 6 4 13 7 ONO 1023,4 20 0 0,0
21.01.2017 02:00:00 1,7 -0,9 -1,3 2,9 8,2 6 4 12 7 NO 1023,7 20 0 0,0
21.01.2017 01:00:00 1,4 -1,7 -0,6 3,0 8,2 6 3 10 6 NO 1023,9 20 0 0,0
21.01.2017 00:00:00 1,9 -1,9 -0,3 3,1 8,2 6 4 10 5 NNO 1024,4 20 0 0,0
20.01.2017 23:00:00 1,8 -1,8 -0,7 3,1 8,2 4 2 9 5 ONO 1024,4 20 0 0,0
20.01.2017 22:00:00 2,3 -1,5 -0,1 3,1 8,3 9 5 13 7 O 1024,4 20 0 0,0
20.01.2017 21:00:00 2,6 -1,4 0,0 3,2 8,3 0 0 10 5 N 1024,6 20 0 0,0
20.01.2017 20:00:00 5,1 0,3 3,3 3,1 8,3 7 4 13 7 O 1024,5 20 0 0,0
20.01.2017 19:00:00 6,2 -0,3 5,0 3,0 8,4 7 4 17 9 O 1024,2 20 0 0,0
20.01.2017 18:00:00 7,3 0,0 6,1 2,7 8,4 11 6 30 16 O 1023,8 20 2 0,0
20.01.2017 17:00:00 9,1 0,3 8,7 2,4 8,4 15 8 42 23 O 1023,5 20 57 0,0
20.01.2017 16:00:00 9,7 0,3 10,1 2,2 8,4 15 8 36 19 OZO 1023,7 20 60 0,0
20.01.2017 15:00:00 9,7 -0,2 13,0 2,1 8,5 15 8 36 19 O 1023,7 20 60 0,0
20.01.2017 14:00:00 7,9 -1,4 10,1 2,0 8,5 10 6 26 14 ONO 1024,4 20 60 0,0
20.01.2017 13:00:00 4,9 -2,5 6,8 2,0 8,5 12 7 27 15 O 1025,5 17 60 0,0
20.01.2017 12:00:00 3,7 -3,1 5,6 2,0 8,5 13 7 24 13 O 1026,1 15 60 0,2
20.01.2017 11:00:00 1,2 -3,7 2,1 2,0 8,5 6 3 10 6 O 1027,0 9 60 0,0
20.01.2017 10:00:00 -1,1 -3,6 -2,6 2,1 8,6 3 2 7 4 O 1026,8 6 60 0,0
20.01.2017 09:00:00 -3,1 -4,4 -4,3 2,1 8,6 6 4 15 8 ONO 1026,6 5 1 0,0
20.01.2017 08:00:00 -2,8 -4,4 -3,6 2,2 8,6 13 7 21 11 O 1026,6 5 0 0,0
20.01.2017 07:00:00 -2,9 -4,0 -5,1 2,3 8,6 13 7 18 10 O 1026,5 5 0 0,0
20.01.2017 06:00:00 -3,2 -4,2 -5,4 2,4 8,6 10 5 14 8 O 1026,7 5 0 0,0
20.01.2017 05:00:00 -4,5 -6,2 -5,4 2,4 8,7 4 2 6 3 O 1027,2 6 0 0,0
20.01.2017 04:00:00 -3,7 -5,2 -5,1 2,4 8,7 3 2 8 4 OZO 1027,3 8 0 0,0
20.01.2017 03:00:00 -3,2 -5,7 -4,8 2,5 8,7 5 3 6 4 ONO 1027,2 11 0 0,0
20.01.2017 02:00:00 -2,9 -5,9 -4,7 2,6 8,7 5 3 11 6 O 1027,4 13 0 0,0
20.01.2017 01:00:00 -2,2 -5,2 -3,6 2,7 8,8 8 5 11 6 ONO 1027,6 12 0 0,0
20.01.2017 00:00:00 -2,2 -5,5 -3,4 2,7 8,8 8 4 12 6 O 1027,9 14 0 0,0
19.01.2017 23:00:00 -1,9 -5,7 -2,9 2,7 8,8 6 4 19 10 ONO 1028,3 16 0 0,0
19.01.2017 22:00:00 -1,3 -5,3 -1,9 2,7 8,8 13 7 20 11 O 1028,4 16 0 0,0
19.01.2017 21:00:00 -0,9 -5,1 -2,3 2,8 8,8 11 6 22 12 O 1028,5 18 0 0,0
19.01.2017 20:00:00 -0,8 -5,8 -2,6 2,8 8,9 8 4 11 6 O 1028,3 20 0 0,0
19.01.2017 19:00:00 -0,9 -6,1 -2,6 2,8 8,9 8 4 9 5 O 1028,1 20 0 0,0
19.01.2017 18:00:00 0,2 -6,0 -0,9 2,7 8,9 6 3 18 10 O 1027,7 20 0 0,0
19.01.2017 17:00:00 1,9 -5,5 2,2 2,7 8,9 9 5 20 11 O 1027,2 20 0 0,0
19.01.2017 16:00:00 2,0 -4,3 2,0 2,7 9,0 10 6 19 11 O 1027,0 20 0 0,0
19.01.2017 15:00:00 1,0 -3,3 1,4 2,7 9,0 13 7 25 13 O 1027,0 19 0 0,0
19.01.2017 14:00:00 0,3 -4,2 0,4 2,7 9,0 12 7 21 11 OZO 1027,0 17 0 0,0
19.01.2017 13:00:00 -0,8 -5,4 -0,7 2,7 9,0 10 5 17 9 OZO 1027,5 10 0 0,0
19.01.2017 12:00:00 -1,7 -5,4 -1,6 2,7 9,1 8 4 14 8 OZO 1028,2 15 0 0,0
19.01.2017 11:00:00 -2,3 -4,6 -2,3 2,8 9,1 6 3 14 7 O 1028,1 10 0 0,0
19.01.2017 10:00:00 -2,7 -5,5 -2,9 2,8 9,1 5 3 7 4 O 1027,8 13 0 0,0
19.01.2017 09:00:00 -3,2 -6,2 -3,4 2,9 9,1 3 2 10 5 OZO 1027,3 10 0 0,0
19.01.2017 08:00:00 -3,6 -6,6 -3,7 3,0 9,1 6 4 11 6 OZO 1027,2 14 0 0,0
19.01.2017 07:00:00 -3,9 -6,8 -4,7 3,1 9,2 8 5 14 8 OZO 1027,3 15 0 0,0
19.01.2017 06:00:00 -4,8 -6,5 -5,2 3,2 9,2 9 5 13 7 O 1027,2 9 0 0,0
19.01.2017 05:00:00 -4,5 -7,1 -5,1 3,3 9,2 9 5 14 8 O 1027,8 13 0 0,0
19.01.2017 04:00:00 -4,2 -6,8 -4,7 3,4 9,2 8 4 11 6 OZO 1028,1 14 0 0,0
19.01.2017 03:00:00 -3,7 -5,5 -4,6 3,5 9,2 8 5 11 6 OZO 1028,3 12 0 0,0
19.01.2017 02:00:00 -3,2 -6,0 -4,0 3,6 9,3 8 4 12 6 O 1028,2 15 0 0,0
19.01.2017 01:00:00 -2,8 -6,1 -3,8 3,7 9,3 8 5 13 7 O 1028,5 17 0 0,0
19.01.2017 00:00:00 -2,5 -6,2 -3,4 3,7 9,4 8 4 11 6 ONO 1028,8 20 0 0,0
18.01.2017 23:00:00 -2,6 -7,0 -3,9 3,8 9,4 5 3 8 4 ONO 1028,8 20 0 0,0
18.01.2017 22:00:00 -1,7 -7,0 -2,6 3,9 9,4 6 4 11 6 ONO 1028,8 20 0 0,0
18.01.2017 21:00:00 -0,8 -7,4 -1,1 3,9 9,4 4 2 10 5 OZO 1029,0 20 0 0,0
18.01.2017 20:00:00 -0,4 -7,4 -0,5 3,9 9,4 5 3 12 6 O 1028,9 20 0 0,0
18.01.2017 19:00:00 -0,2 -8,2 -0,4 3,9 9,5 4 2 16 9 O 1028,4 20 0 0,0
18.01.2017 18:00:00 -0,1 -7,8 -0,1 3,9 9,5 8 4 21 11 ONO 1028,1 20 0 0,0
18.01.2017 17:00:00 0,1 -7,7 0,4 3,8 9,5 7 4 14 8 O 1028,0 20 0 0,0
18.01.2017 16:00:00 0,3 -7,7 0,8 3,6 9,6 6 4 16 9 O 1027,5 20 0 0,0
18.01.2017 15:00:00 0,4 -7,4 1,9 3,5 9,6 3 1 23 13 NO 1027,3 20 14 0,0
18.01.2017 14:00:00 1,9 -6,4 5,6 3,5 9,6 5 3 19 10 OZO 1027,1 20 60 0,0
18.01.2017 13:00:00 0,6 -6,3 3,1 3,5 9,6 9 5 26 14 O 1027,5 20 60 0,0
18.01.2017 12:00:00 -0,6 -6,4 1,2 3,6 9,6 15 8 34 18 ONO 1028,2 19 60 0,0
18.01.2017 11:00:00 -1,5 -6,3 -0,8 3,7 9,6 17 9 38 21 ONO 1028,5 20 60 0,0
18.01.2017 10:00:00 -2,3 -6,5 -2,6 3,8 9,7 21 11 38 20 ONO 1028,5 19 60 0,0
18.01.2017 09:00:00 -3,0 -6,5 -3,6 3,9 9,7 15 8 29 15 ONO 1028,3 20 0 0,0
18.01.2017 08:00:00 -3,0 -6,6 -3,6 4,1 9,7 12 7 26 14 NO 1028,0 20 0 0,0
18.01.2017 07:00:00 -3,1 -7,1 -3,6 4,2 9,7 13 7 26 14 NNO 1027,8 20 0 0,0
18.01.2017 06:00:00 -3,0 -7,3 -3,5 4,4 9,7 11 6 26 14 NO 1028,0 20 0 0,0
18.01.2017 05:00:00 -2,9 -7,8 -3,4 4,5 9,7 11 6 26 14 NNO 1028,4 20 0 0,0
18.01.2017 04:00:00 -2,7 -7,8 -3,3 4,7 9,7 14 8 36 19 NNO 1028,7 20 0 0,0
18.01.2017 03:00:00 -2,3 -7,2 -2,6 4,8 9,7 16 9 44 24 NO 1028,7 20 0 0,0
18.01.2017 02:00:00 -1,5 -6,1 -1,9 5,1 9,8 21 11 45 24 ONO 1028,7 19 0 0,0
18.01.2017 01:00:00 -0,7 -5,5 -1,2 5,2 9,8 23 12 46 25 ONO 1028,5 20 0 0,0
18.01.2017 00:00:00 -0,1 -5,9 -0,5 5,4 9,8 20 11 44 24 NO 1028,6 20 0 0,0
17.01.2017 23:00:00 0,4 -6,7 0,0 5,7 9,8 20 11 40 22 NO 1028,6 20 0 0,0
17.01.2017 22:00:00 1,1 -6,5 0,6 5,9 9,8 19 10 40 21 NO 1029,5 20 0 0,0
17.01.2017 21:00:00 1,3 -6,3 0,6 6,1 9,8 21 12 42 23 NNO 1029,3 20 0 0,0
17.01.2017 20:00:00 1,2 -6,4 0,2 6,3 9,8 15 8 26 14 NNO 1029,5 20 0 0,0
17.01.2017 19:00:00 1,2 -7,1 0,6 6,5 9,8 10 5 23 12 NO 1029,5 20 0 0,0
17.01.2017 18:00:00 2,5 -7,2 1,8 6,5 9,8 13 7 26 14 NNO 1028,9 20 0 0,0
17.01.2017 17:00:00 4,7 -7,5 4,1 6,6 9,9 15 8 34 18 NO 1028,9 20 50 0,0
17.01.2017 16:00:00 5,9 -7,4 5,8 6,4 9,9 18 10 35 19 NO 1028,7 20 60 0,0
17.01.2017 15:00:00 5,9 -7,4 9,8 6,1 9,8 18 10 35 19 NNO 1028,7 20 60 0,0
17.01.2017 14:00:00 5,4 -5,9 8,7 5,9 9,9 13 7 29 16 NO 1029,3 20 60 0,0
17.01.2017 13:00:00 4,1 -4,6 7,4 5,7 9,9 13 7 29 15 NO 1029,8 20 60 0,0
17.01.2017 12:00:00 2,9 -3,9 4,0 5,8 9,8 15 8 32 17 NO 1030,5 20 60 0,0
17.01.2017 11:00:00 1,8 -3,7 3,0 6,0 9,9 21 11 37 20 ONO 1030,4 20 60 0,0
17.01.2017 10:00:00 0,8 -3,3 -0,2 6,2 9,9 13 7 24 13 NO 1030,1 20 58 0,0
17.01.2017 09:00:00 -0,6 -2,3 -1,2 6,5 9,8 9 5 18 10 NO 1029,4 20 0 0,0
17.01.2017 08:00:00 -0,5 -2,2 -1,0 6,7 9,8 9 5 17 9 NO 1029,2 19 0 0,0
17.01.2017 07:00:00 0,1 -2,0 -0,5 7,0 9,8 9 5 21 11 ONO 1028,7 20 0 0,0
17.01.2017 06:00:00 0,6 -1,8 0,0 7,4 9,8 9 5 19 11 ONO 1028,3 20 0 0,0
17.01.2017 05:00:00 1,2 -1,7 0,6 7,6 9,8 10 5 16 9 ONO 1028,3 20 0 0,0
17.01.2017 04:00:00 1,5 -1,7 0,7 7,9 9,8 8 5 16 9 ONO 1028,1 20 0 0,0
17.01.2017 03:00:00 2,5 -2,2 2,1 8,2 9,8 11 6 27 15 ONO 1027,8 20 0 0,0
17.01.2017 02:00:00 3,6 -0,6 3,1 8,5 9,8 9 5 29 16 ONO 1027,4 20 0 0,0
17.01.2017 01:00:00 4,6 -0,2 4,5 8,6 9,8 15 8 29 16 ONO 1026,9 20 0 0,0
17.01.2017 00:00:00 5,2 0,9 5,1 8,8 9,8 12 7 26 14 ONO 1026,6 20 0 0,0
16.01.2017 23:00:00 5,6 1,7 5,6 8,9 9,7 12 6 24 13 ONO 1026,3 20 0 0,0
16.01.2017 22:00:00 5,8 2,4 5,4 9,0 9,7 10 6 26 14 ONO 1026,0 20 0 0,0
16.01.2017 21:00:00 6,6 3,9 5,9 9,2 9,7 10 6 19 11 ONO 1026,0 20 0 0,0
16.01.2017 20:00:00 7,4 3,8 7,2 9,3 9,7 12 7 22 12 ONO 1025,6 20 0 0,0
16.01.2017 19:00:00 8,5 5,4 8,3 9,3 9,7 7 4 16 9 NO 1025,3 20 0 0,0
16.01.2017 18:00:00 9,1 5,6 8,9 9,4 9,7 14 8 37 20 NNO 1024,9 18 0 0,0
16.01.2017 17:00:00 9,6 6,5 9,7 9,3 9,7 27 14 41 22 N 1024,8 12 0 0,0
16.01.2017 16:00:00 9,9 7,5 10,3 9,2 9,7 28 15 44 24 N 1024,7 20 0 0,0
16.01.2017 15:00:00 10,3 7,7 11,1 9,0 9,7 29 16 37 20 N 1024,7 20 0 0,0
16.01.2017 14:00:00 10,6 8,2 11,8 8,8 9,7 29 16 40 22 N 1025,0 12 10 0,0
16.01.2017 13:00:00 10,9 8,8 10,4 8,6 9,7 26 14 40 21 N 1025,2 20 8 0,0
16.01.2017 12:00:00 10,4 8,3 - 8,5 9,7 24 13 - - N 1025,8 9 - -
16.01.2017 11:00:00 10,1 8,9 9,4 8,4 9,7 29 15 37 20 N 1026,0 10 2 0,2
16.01.2017 10:00:00 9,7 8,5 9,0 8,4 9,7 27 15 38 21 N 1025,5 10 0 0,4
16.01.2017 09:00:00 9,7 8,0 9,1 8,4 9,7 20 11 39 21 N 1025,0 12 0 0,0
16.01.2017 08:00:00 9,6 7,7 9,0 8,4 9,7 18 10 41 22 N 1024,5 18 0 0,0
16.01.2017 07:00:00 10,0 8,1 9,3 8,3 9,7 33 18 53 28 N 1024,2 10 0 0,0
16.01.2017 06:00:00 9,8 8,7 9,2 8,2 9,8 35 19 61 33 N 1024,0 7 0 0,0
16.01.2017 05:00:00 10,1 8,7 9,4 8,2 9,7 41 22 58 31 N 1024,1 10 0 0,4
16.01.2017 04:00:00 10,4 8,3 9,6 8,1 9,7 43 23 55 30 N 1024,2 12 0 0,0
16.01.2017 03:00:00 10,4 8,7 9,3 8,0 9,8 41 22 64 35 N 1024,3 11 0 0,2
16.01.2017 02:00:00 10,3 8,9 9,5 7,9 9,7 40 22 58 31 NNW 1024,5 9 0 0,2
16.01.2017 01:00:00 10,2 9,3 9,5 7,9 9,7 39 21 53 29 NNW 1025,0 7 0 1,4
16.01.2017 00:00:00 10,2 9,0 9,0 7,8 9,8 44 24 59 32 NNW 1025,3 5 0 0,6
15.01.2017 23:00:00 9,7 8,8 8,6 7,8 9,8 30 16 54 29 N 1025,8 8 0 0,2
15.01.2017 22:00:00 9,1 7,7 8,5 7,7 9,8 34 18 58 32 N 1026,3 11 0 1,0
15.01.2017 21:00:00 9,0 7,9 7,6 7,7 9,8 37 20 54 29 NNW 1026,6 6 0 1,0
15.01.2017 20:00:00 7,8 7,0 6,7 7,8 9,8 12 7 16 9 NW 1027,0 2,8 0 0,4
15.01.2017 19:00:00 7,1 6,0 6,6 7,7 9,8 0 0 6 3 N 1027,6 8 0 0,2
15.01.2017 18:00:00 7,4 6,3 7,0 7,7 9,8 4 2 14 8 O 1027,6 15 0 0,8

tt = temperatuur
td = dauwpunt
tt 5cm = temperatuur 5cm
tt -20cm = temperatuur -20cm
tt -100cm = temperatuur -100cm
ff = windsnelheid
fx = windstoten
dd = windrichting
ppp = luchtdruk
vv = zicht
sd = Zonneschijnduur
rr = neerslag

Weerstations in de omgeving